Location: Gloden
(48.4833°N, 15.3167°E)
Time: 02:53:05
(UTC+00:00)

CUTE-I - Pass Details

Date: 01 December 2022
Orbit: 809 x 824 km, 98.7° (Epoch: 30 January)

Event Time Altitude Azimuth Distance (km) Brightness Sun altitude
Rises 05:17:16 0° 16° (NNE) 3,368 ? -11.5°
Reaches altitude 10° 05:19:38 10° 19° (NNE) 2,432 ? -11.1°
Maximum altitude 05:25:01 70° 103° (ESE) 878 ? -10.3°
Drops below altitude 10° 05:30:22 10° 187° (S) 2,419 ? -9.4°
Sets 05:32:43 0° 190° (S) 3,347 ? -9.1°
